Location: ???? ?????????
(44.3677°N, 135.2344°E)
Time: 06:41:39
(UTC+00:00)

CZ-4C R/B - Pass Details

Date: 19 May 2025
Orbit: 500 x 1483 km, 63.4° (Epoch: 23 June)

Event Time Altitude Azimuth Distance (km) Brightness Sun altitude
Rises 12:32:02 0° 316° (NW) 3,890 7.3 -17.9°
Reaches altitude 10° 12:34:42 10° 308° (NW) 3,066 6.2 -18.1°
Maximum altitude 12:41:31 38° 244° (WSW) 1,919 4.0 -18.8°
Enters shadow 12:47:29 17° 188° (S) 3,001 4.6 -19.4°
